Location: Nakusp
(50.2330°N, 117.8000°W)
Time: 05:42:46
(UTC-08:00)

Daily predictions for brighter satellites

Satellite Brightness Start Highest point End
(mag) Time Altitude Azimuth Time Altitude Azimuth Time Altitude Azimuth
CENTAUR R/B 4.4 02:56:21 26° NE 02:56:21 26° NE 02:59:16 10° NE
ATLAS 3B R/B 4.4 03:19:20 24° NNE 03:19:20 24° NNE 03:23:08 10° NE
Cosmos 1943 Rocket 3.9 03:37:39 28° ENE 03:37:39 28° ENE 03:41:27 10° ESE
CZ-4C R/B 4.1 03:50:01 26° NNE 03:50:01 26° NNE 03:55:16 10° ENE
Cosmos 2333 Rocket 4.5 03:59:03 14° NNE 03:59:03 14° NNE 03:59:52 10° NNE
SL-16 R/B 3.9 04:11:03 23° NNE 04:11:03 23° NNE 04:13:14 10° NNE
Lacrosse 5 3.0 04:10:49 41° E 04:10:49 41° E 04:14:31 10° ENE
Lacrosse 5 rocket 3.4 04:25:39 24° NE 04:25:39 24° NE 04:27:52 10° ENE
Cosmos 2263 4.3 04:28:13 71° SE 04:28:13 71° SE 04:33:14 10° SSE
Cosmos 2237 Rocket 4.2 04:37:01 16° N 04:37:01 16° N 04:38:31 10° NNE
Meteor 1-19 Rocket 4.1 04:42:53 74° NW 04:43:24 83° W 04:49:09 10° S
CENTAUR R/B 3.2 04:43:33 42° NNW 04:43:33 42° NNW 04:50:24 10° NE
ATLAS 5 CENTAUR R/B 3.7 04:48:23 23° N 04:49:44 25° NNE 04:54:39 10° ENE
Celestis-02/Orion 38 4.5 04:45:09 10° SSE 04:50:24 83° WSW 04:50:52 74° NW
Nadezhda 3 Rocket 3.9 04:49:03 24° NNW 04:53:04 77° W 04:59:25 10° S
Cosmos 2369 Rocket 2.7 04:55:40 43° SSW 04:55:40 43° SSW 04:59:56 10° S
SKYMED 2 3.6 04:50:24 10° SSE 04:54:22 73° SE 04:54:22 73° SE
Lacrosse 4 Rocket 1.6 04:56:01 65° ESE 04:56:01 65° ESE 04:59:39 10° SE
Cosmos 1025 Rocket 3.1 04:57:49 73° SSE 04:57:49 73° SSE 05:01:47 10° S
Cosmos 2219 Rocket 4.3 05:04:33 13° N 05:04:33 13° N 05:05:53 10° N
Meteor 1-11 Rocket 3.6 04:58:24 10° SSW 05:04:12 85° WNW 05:09:54 10° NNE
Meteor 2-4 Rocket 3.5 05:02:21 36° NNW 05:04:42 77° W 05:10:23 10° S
Meteor 1-23 Rocket 4.1 05:01:39 26° NNW 05:04:56 87° WSW 05:10:30 10° S
Cosmos 1603 3.8 05:06:16 51° NW 05:06:16 51° NW 05:11:40 10° NNE
ATLAS 3B R/B 3.9 05:06:36 22° NNW 05:10:00 32° NNE 05:16:03 10° E
ADEOS II 3.5 05:05:12 10° N 05:07:28 24° NNW 05:07:28 24° NNW
Cosmos 962 Rocket 4.5 05:04:12 10° S 05:10:25 87° E 05:16:46 10° N
Abrixas rocket 3.1 05:11:18 47° SE 05:11:18 47° SE 05:14:07 10° E
Cosmos 2074 Rocket 4.5 05:15:47 37° NW 05:15:47 37° NW 05:20:40 10° N
Meteor 1-5 Rocket 4.5 05:12:26 10° S 05:17:39 63° E 05:22:54 10° NNE
SL-24 DEB 4.2 05:14:41 10° S 05:19:29 88° E 05:24:19 10° N
Cosmos 1943 Rocket 2.1 05:19:13 43° NW 05:20:50 62° WSW 05:26:15 10° SSE
Cosmos 44 Rocket 3.5 05:20:09 50° WNW 05:20:55 55° NW 05:25:55 10° NE
Cosmos 1452 Rocket 4.0 05:21:45 38° WSW 05:21:45 38° WSW 05:26:12 10° S
Cosmos 1943 3.1 05:21:04 15° SW 05:25:43 71° WNW 05:31:25 10° NNE
Meteor 2-8 Rocket 4.3 05:21:34 10° NNW 05:27:46 82° W 05:33:54 10° S
Helios 1B rocket 3.9 05:25:38 10° SE 05:29:27 37° ENE 05:33:18 10° N
Cosmos 2341 Rocket 3.9 05:25:51 10° SSW 05:32:05 69° WNW 05:38:19 10° N
Cosmos 1544 Rocket 3.8 05:30:18 10° S 05:34:39 70° E 05:39:04 10° NNE
IDEFIX/ARIANE 42P 4.5 05:30:41 10° NNE 05:35:19 32° E 05:39:56 10° SSE
Cosmos 1656 Rocket 3.7 05:33:07 21° NNW 05:37:01 89° ENE 05:42:44 10° SSE
CZ-4C R/B 3.6 05:35:12 19° NNW 05:39:46 42° NNE 05:46:50 10° E
Cosmos 2333 Rocket 4.2 05:41:02 12° NNW 05:41:02 12° NNW 05:42:58 10° N
Cosmos 1461 4.3 05:38:38 10° S 05:42:38 40° ESE 05:46:32 10° NE
SL-24 R/B 4.4 05:37:28 10° NNE 05:42:54 89° ESE 05:47:29 10° SSW
COSMO-SKYMED 1 3.2 05:39:00 10° SSW 05:42:58 34° W 05:42:58 34° W
Cosmos 1536 3.3 05:44:07 37° NW 05:44:07 37° NW 05:47:26 10° N
Okean 2 3.6 05:43:45 33° NW 05:45:13 48° W 05:49:12 10° SSW
CZ-2C R/B 4.0 05:41:07 10° NNE 05:45:58 39° E 05:50:41 10° SSE
NOAA 6 4.2 05:45:01 10° N 05:49:54 45° WNW 05:54:46 10° SW
SOZ 4.0 05:50:50 69° E 05:50:50 69° E 05:52:44 10° ENE
Cosmos 1500 4.5 05:47:41 10° SSE 05:51:15 42° E 05:54:50 10° NNE
Lacrosse 5 2.0 05:50:03 28° W 05:52:35 55° NNW 05:57:37 10° ENE
SL-16 R/B 3.8 05:52:57 17° NNW 05:53:04 17° NNW 05:56:38 10° N
Cosmos 2154 Rocket 4.3 05:47:21 10° SW 05:53:07 40° WNW 05:58:56 10° N
Cosmos 839 Rocket 4.3 05:49:26 23° NW 05:53:13 47° WSW 05:59:02 10° S
CZ-4 R/B 2.2 05:52:01 10° NNE 05:55:53 52° E 05:59:41 10° S
Cosmos 1892 Rocket 3.9 05:53:34 20° NNW 05:56:19 43° W 06:00:33 10° SSW
Cosmos 2084 3.1 05:52:48 10° SW 05:56:39 90° E 06:00:28 10° NE
USA 229 DEB 3.7 05:50:04 10° SW 05:57:00 84° NW 06:04:03 10° NE
USA 229 3.7 05:50:11 10° SW 05:57:05 84° NW 06:04:08 10° NE
Cosmos 1340 3.3 05:57:02 31° W 05:57:27 32° W 06:00:51 10° SSW
Meteor 1-28 Rocket 3.8 05:54:51 10° SSW 05:58:24 36° W 05:59:44 27° NW
Cosmos 2322 Rocket 4.5 05:58:03 10° N 06:00:05 12° NNE 06:02:07 10° NE
Cosmos 1980 Rocket 4.3 05:56:32 10° N 06:00:18 18° NE 06:04:04 10° ENE
Cosmos 44 3.7 05:58:04 17° WSW 06:01:50 46° NW 06:06:43 10° NNE
SMAP 4.1 05:57:20 10° NNE 06:01:52 49° E 06:06:23 10° S
Lacrosse 5 rocket 1.9 06:01:22 23° NW 06:03:50 53° NNE 06:08:13 10° ESE
Cosmos 1626 Rocket 3.5 06:02:18 10° N 06:06:47 87° WSW 06:11:10 10° S
Cosmos 405 Rocket 3.2 06:04:25 10° N 06:08:12 60° ENE 06:11:54 10° SSE
Cosmos 1269 Rocket 4.0 06:05:11 10° SW 06:10:27 64° WNW 06:15:45 10° NNE
Cosmos 1066 Rocket 4.1 06:05:21 10° NNW 06:10:47 90° W 06:16:18 10° S
Meteor 1-12 Rocket 4.3 06:06:46 10° S 06:12:24 85° E 06:18:07 10° NNE
CSL-04 Rocket 3.7 06:07:16 10° N 06:12:47 65° WNW 06:18:12 10° SSW
SL-8 Rocket 4.1 06:09:52 10° SSW 06:15:57 54° WNW 06:22:03 10° N
USA 215 3.5 06:10:49 10° ENE 06:17:22 73° SE 06:23:53 10° SW
IRS-1A Rocket 4.3 06:13:14 10° NNE 06:18:59 82° WNW 06:24:49 10° SSW
Ariane Rocket 3.2 06:14:29 10° N 06:19:19 45° WNW 06:24:07 10° SW
AQUARIUS 4.4 06:17:36 10° NNE 06:22:08 76° ESE 06:26:37 10° S
SJ-12 3.9 06:18:40 10° NNE 06:22:51 88° WNW 06:27:01 10° SSW
Cosmos 1455 Rocket 3.2 06:19:10 10° SSW 06:23:23 50° WNW 06:27:38 10° N
CSL-04 Debris 4.2 06:18:23 10° N 06:23:47 62° WNW 06:29:11 10° SSW
Cosmos 1331 Rocket 4.0 06:18:57 10° NNW 06:24:05 64° WSW 06:29:10 10° S
Cosmos 2251 Rocket 4.1 06:21:57 10° S 06:27:15 64° ESE 06:32:36 10° NNE
Meteor 1-29 2.9 06:26:45 10° S 06:30:06 65° WSW 06:33:30 10° NNW
Cosmos 2366 rocket 4.1 06:24:05 10° SSW 06:30:17 57° WNW 06:36:35 10° N
Cosmos 1048 Rocket 4.2 06:25:21 10° SW 06:30:21 49° WNW 06:35:27 10° NNE
Cosmos 1975 2.9 06:27:37 10° SSW 06:31:40 57° WNW 06:35:44 10° N
SL-16 R/B 4.4 06:28:47 10° N 06:31:59 15° NNE 06:35:10 10° ENE
Cosmos 1697 Rocket 4.0 06:26:50 10° NNW 06:32:00 34° NE 06:37:08 10° ESE
Lacrosse 4 Rocket 3.2 06:32:24 13° W 06:33:43 15° WSW 06:36:00 10° SW
CORIOLIS 4.4 06:28:42 10° NNE 06:34:06 77° ESE 06:39:27 10° S
ATLAS 5 CENTAUR R/B 2.8 06:29:56 10° NW 06:35:34 57° NE 06:41:47 10° ESE
CENTAUR R/B 3.9 06:30:44 12° NW 06:36:05 29° N 06:42:39 10° ENE
COSMOS 2455 4.3 06:34:23 10° NNW 06:39:34 28° NNE 06:44:43 10° E
SPOT 3 Rocket 3.5 06:37:10 10° NNE 06:42:21 84° WNW 06:47:31 10° SSW
Cosmos 2218 Rocket 4.4 06:37:12 10° SW 06:43:15 43° WNW 06:49:18 10° N
Cosmos 1441 Rocket 3.6 06:43:17 10° N 06:47:15 67° ENE 06:51:08 10° SSE
Abrixas rocket 2.6 06:44:16 10° W 06:47:36 60° S 06:50:55 10° ESE
SL-27 R/B 2.8 06:45:46 10° SW 06:49:14 46° WNW 06:52:48 10° NNE
COSMOS 2406 3.2 06:45:41 10° SW 06:51:20 67° WNW 06:57:01 10° NNE
YAOGAN 1 2.6 06:49:47 10° N 06:54:04 58° WNW 06:58:18 10° SSW
Cosmos 2369 3.8 06:50:36 10° NNW 06:56:18 87° ENE 07:01:57 10° SSE
Cosmos 1867 3.8 06:51:03 10° NW 06:56:27 60° WSW 07:01:48 10° SSE
MOS 1 4.3 06:51:46 10° NNE 06:57:24 69° WNW 07:03:00 10° SSW
USA 238 DEB 4.3 06:52:56 10° NW 06:59:52 55° NE 07:06:47 10° ESE
USA 238 4.3 06:53:01 10° NW 06:59:57 55° NE 07:06:53 10° ESE
Meteor 2-15 Rocket 4.5 06:54:35 10° NNW 07:00:39 65° W 07:06:40 10° S
ATLAS 3B R/B 2.9 06:54:47 10° NW 07:01:51 75° NE 07:08:28 10° SE
Cosmos 1484 Rocket 2.7 06:58:15 10° NNE 07:02:04 84° WNW 07:05:55 10° SSW
Cosmos 1943 Rocket 4.1 07:03:17 10° W 07:03:26 10° W 07:03:34 10° W
Cosmos 1821 Rocket 4.1 06:57:16 10° S 07:03:31 89° E 07:09:43 10° N
Cosmos 494 Rocket 3.9 06:59:32 10° SSW 07:04:41 76° WNW 07:09:55 10° NNE
MSX 3.8 06:58:56 10° NNE 07:04:43 80° WNW 07:10:27 10° SSW
Helios 1B rocket 3.6 07:01:23 10° SSW 07:04:52 25° W 07:08:22 10° NW
Cosmos 1666 2.8 07:01:34 10° S 07:05:20 80° E 07:09:10 10° NNE
